Memphis, TN

1:27 AM CDT on August 27, 2016 (GMT -0500)
Memphis International

Weather History for KMEM - March, 2014

Change the Weather History Date:

Tuesday, March 11, 2014

  Actual Average Record
Temperature  
Mean Temperature 64 °F 52 °F  
Max Temperature 77 °F 62 °F 85 °F (1911)
Min Temperature 50 °F 43 °F 20 °F (1969)
Degree Days  
Heating Degree Days 1 13  
Month to date heating degree days 225 157  
Since 1 July heating degree days 3051 2607  
Cooling Degree Days 0 0  
Month to date cooling degree days 0 0  
Year to date cooling degree days 0 3  
Growing Degree Days 14 (Base 50)    
Moisture  
Dew Point 54 °F    
Average Humidity 66    
Maximum Humidity 89    
Minimum Humidity 43    
Precipitation  
Precipitation T in 0.16 in 2.91 in (1927)
Month to date precipitation 2.40 1.74  
Year to date precipitation 10.52 10.11  
Snow  
Snow 0.00 in 0.00 in T in (2009)
Month to date snowfall 0.5 0.2  
Since 1 July snowfall 0.8 3.6  
Snow Depth 0.00 in    
Sea Level Pressure  
Sea Level Pressure 29.72 in    
Wind  
Wind Speed 10 mph (SSW)    
Max Wind Speed 23 mph    
Max Gust Speed 28 mph    
Visibility 10 miles    
Events Rain    
T = Trace of Precipitation, MM = Missing Value Source: NWS Daily Summary

Daily Weather History Graph

Daily Weather History Graph

Search for Another Location

Airport or City:

Trip Planner

Search our weather history database for the weather conditions in past years. The results will help you decide how hot, cold, wet, or windy it might be!

Date:

Astronomy

Mar. 11, 2014 Rise Set
Actual Time 7:16 AM CDT 7:04 PM CDT
Civil Twilight 6:50 AM CDT 7:29 PM CDT
Nautical Twilight 6:21 AM CDT 7:58 PM CDT
Astronomical Twilight 5:52 AM CDT 8:28 PM CDT
Moon 2:48 PM CDT (3/11) 4:01 AM CDT (3/11)
Length of Visible Light 12h 38m
Length of Day
11h 48m
Waxing Gibbous, 78% of the Moon is Illuminated
Mar 11
Waxing Gibbous
Mar 16
Full
Mar 23
Last Quarter
Mar 30
New
Apr 7
First Quarter

Hourly Weather History & Observations

Time (CDT) Temp. Dew Point Humidity Pressure Visibility Wind Dir Wind Speed Gust Speed Precip Events Conditions
12:54 AM 55.0 °F 48.9 °F 80% 29.87 in 10.0 mi SSW 9.2 mph - N/A   Clear
1:54 AM 53.1 °F 48.0 °F 83% 29.86 in 10.0 mi SSW 4.6 mph - N/A   Clear
2:54 AM 51.1 °F 46.9 °F 86% 29.84 in 10.0 mi SSW 4.6 mph - N/A   Clear
3:54 AM 53.1 °F 50.0 °F 89% 29.82 in 10.0 mi SSW 6.9 mph - N/A   Clear
4:54 AM 54.0 °F 50.0 °F 86% 29.80 in 10.0 mi SSW 3.5 mph - N/A   Clear
5:54 AM 51.1 °F 48.0 °F 89% 29.81 in 10.0 mi South 8.1 mph - N/A   Clear
6:54 AM 53.1 °F 50.0 °F 89% 29.80 in 10.0 mi SSW 4.6 mph - N/A   Partly Cloudy
7:54 AM 54.0 °F 50.0 °F 86% 29.81 in 10.0 mi Calm Calm - N/A   Partly Cloudy
8:54 AM 59.0 °F 54.0 °F 83% 29.79 in 10.0 mi SW 5.8 mph - N/A   Partly Cloudy
9:54 AM 64.0 °F 54.0 °F 70% 29.80 in 10.0 mi SSW 8.1 mph - N/A   Partly Cloudy
10:54 AM 68.0 °F 55.0 °F 63% 29.81 in 10.0 mi SW 12.7 mph 17.3 mph N/A   Scattered Clouds
11:32 AM 71.6 °F 55.4 °F 57% 29.78 in 10.0 mi WSW 11.5 mph 23.0 mph N/A   Mostly Cloudy
11:39 AM 71.6 °F 55.4 °F 57% 29.78 in 10.0 mi SW 12.7 mph - N/A   Scattered Clouds
11:54 AM 72.0 °F 55.0 °F 55% 29.77 in 10.0 mi WSW 16.1 mph 24.2 mph N/A   Scattered Clouds
12:54 PM 72.0 °F 54.0 °F 53% 29.73 in 10.0 mi SSW 9.2 mph - N/A   Partly Cloudy
1:54 PM 75.9 °F 54.0 °F 46% 29.69 in 10.0 mi SSW 15.0 mph 21.9 mph N/A   Scattered Clouds
2:54 PM 77.0 °F 53.1 °F 43% 29.66 in 10.0 mi South 12.7 mph 20.7 mph N/A   Scattered Clouds
3:54 PM 75.9 °F 54.0 °F 46% 29.65 in 10.0 mi South 20.7 mph 25.3 mph N/A   Scattered Clouds
4:54 PM 75.0 °F 54.0 °F 48% 29.62 in 10.0 mi SSW 13.8 mph 23.0 mph N/A   Scattered Clouds
5:54 PM 72.0 °F 55.0 °F 55% 29.62 in 10.0 mi SSW 13.8 mph 23.0 mph N/A   Mostly Cloudy
6:54 PM 70.0 °F 55.9 °F 61% 29.63 in 10.0 mi SSW 8.1 mph - N/A   Mostly Cloudy
7:01 PM 71.6 °F 55.4 °F 57% 29.63 in 10.0 mi SSW 8.1 mph - N/A   Mostly Cloudy
7:26 PM 69.8 °F 57.2 °F 64% 29.64 in 10.0 mi SSW 9.2 mph - N/A   Mostly Cloudy
7:54 PM 70.0 °F 57.0 °F 63% 29.64 in 10.0 mi SSW 10.4 mph - N/A   Overcast
8:21 PM 66.2 °F 60.8 °F 83% 29.64 in 10.0 mi South 12.7 mph - 0.00 in Rain Light Rain
8:54 PM 66.0 °F 60.1 °F 81% 29.62 in 10.0 mi South 5.8 mph - 0.00 in   Overcast
9:36 PM 66.2 °F 60.8 °F 83% 29.62 in 10.0 mi South 9.2 mph - N/A   Overcast
9:48 PM 64.4 °F 59.0 °F 83% 29.62 in 10.0 mi South 5.8 mph - N/A   Scattered Clouds
9:54 PM 64.9 °F 59.0 °F 81% 29.61 in 10.0 mi SSW 6.9 mph - N/A   Scattered Clouds
10:05 PM 66.2 °F 59.0 °F 78% 29.63 in 10.0 mi SW 6.9 mph - N/A   Mostly Cloudy
10:54 PM 64.9 °F 59.0 °F 81% 29.61 in 10.0 mi South 16.1 mph 20.7 mph N/A   Scattered Clouds
11:24 PM 64.4 °F 59.0 °F 83% 29.62 in 10.0 mi SSW 9.2 mph 19.6 mph N/A   Mostly Cloudy
11:54 PM 64.9 °F 60.1 °F 84% 29.61 in 10.0 mi SSW 11.5 mph 19.6 mph N/A   Overcast